[[{"header":{"parameterUnit":"m.s-1","parameterCategory":1,"la1":30.2991,"la2":30.254,"lo1":-89.0895,"lo2":-89.0444,"dy":0.0017,"dx":0.0017,"nx":28,"ny":28,"refTime":"2024-03-10T09:00:00:Z","depth":0,"parameterNumber":2,"parameterNumberName":"U-component_of_WINDS"},"data":[0,0,0,0,0,0,0,0,0,0,0,0,0,0,0,0,0,0,0,0,0,0,0,0,0,0,0,0,0,0,0,0,0,0,0,0,0,0,0,0,0,0,0,0,0,0,0,0,0,0,0,0,0,0,0,0,0,0,2.3594,2.3595,0,2.3638,2.3639,2.3639,2.3627,2.3626,2.3625,2.3624,2.3668,2.367,2.3672,0,0,0,0,0,0,0,0,0,0,0,0,0,2.3499,2.35,2.3594,2.3595,2.3595,2.3638,2.3639,2.3639,2.3627,2.3626,2.3625,2.3624,2.3667,2.367,2.3672,0,0,0,0,0,0,0,0,0,0,0,0,0,2.3541,2.3501,2.3594,2.3594,2.3595,2.3638,2.3639,2.364,2.3627,2.3626,2.3624,2.3623,2.3666,2.3669,2.3672,2.3718,0,0,2.3681,2.3683,0,0,0,0,0,0,0,0,2.3539,2.3545,2.3594,2.3594,2.3595,2.3626,2.3621,2.3666,2.3627,2.3615,2.3624,2.3623,2.3655,2.3659,2.367,2.372,2.3722,2.3682,2.3684,2.3685,2.3686,0,0,0,0,0,0,0,2.3536,2.3543,2.3612,2.3594,2.3595,2.3592,2.3597,2.363,2.3642,2.3616,2.3615,2.362,2.3655,2.3667,2.3671,2.3722,2.3682,2.3684,2.3686,2.3687,2.3813,2.3815,0,0,0,0,0,0,2.3533,2.354,2.361,2.3613,2.3563,2.3595,2.36,2.3617,2.3641,2.3644,2.3622,2.362,2.3663,2.3667,2.3672,2.3728,2.3685,2.3688,2.3689,2.3812,2.3813,2.3815,0,0,0,0,0,0,2.3531,2.3539,2.3608,2.3576,2.3585,2.3598,2.3617,2.3619,2.3631,2.3646,2.3648,2.3632,2.3662,2.3668,2.3707,2.3729,2.3689,2.3692,2.381,2.3812,2.3814,2.3839,0,0,0,0,0,0,2.3528,2.3538,2.3556,2.3577,2.3587,2.3642,2.3619,2.3621,2.3636,2.3634,2.3656,2.3658,2.3661,2.3703,2.371,2.3732,2.3694,2.3808,2.3811,2.3814,2.3836,2.3842,2.3846,0,0,0,0,0,2.3524,2.356,2.3557,2.3565,2.3609,2.3644,2.3649,2.3652,2.3638,2.3656,2.3666,2.3657,2.3726,2.3707,2.3715,2.3739,2.3806,2.381,2.3813,2.3834,2.3841,2.3846,0,0,0,0,0,0,2.354,2.3563,2.3559,2.3603,2.3622,2.3642,2.3664,2.3659,2.3682,2.3679,2.3682,2.3687,2.3727,2.3737,2.3715,2.3785,2.3764,2.3769,2.3777,2.3783,2.3788,2.3785,2.3697,0,0,0,0,0,2.3549,2.3576,2.3594,2.3631,2.364,2.3651,2.3666,2.3667,2.3686,2.3694,2.3706,2.3725,2.3751,2.3768,2.3792,2.3838,2.3842,2.3858,2.3863,2.3868,2.3872,2.3898,2.3905,2.3827,2.3826,2.3826,0,0,2.3567,2.3583,2.3599,2.3634,2.3649,2.3677,2.3657,2.3687,2.3707,2.3698,2.3736,2.3746,2.3767,2.381,2.3829,2.3819,2.3895,2.3872,2.3875,2.3877,2.3902,2.3909,2.3916,2.3829,2.3828,2.3828,0,0,2.3614,2.3628,2.3661,2.3676,2.3699,2.3706,2.3714,2.3735,2.3742,2.378,2.3774,2.3798,2.3842,2.3858,2.3871,2.3926,2.392,2.3934,2.3961,2.3986,2.3992,2.3998,2.4017,2.4024,2.3938,2.3939,2.3939,0,2.3633,2.3674,2.3678,2.3709,2.3725,2.3719,2.3752,2.3767,2.3796,2.3807,2.3796,2.3852,2.3866,2.3912,2.3926,2.3937,2.3946,2.3931,2.3991,2.3997,2.4002,2.4021,2.4028,2.394,2.394,2.394,2.394,0,2.3697,2.3726,2.375,2.3779,2.3798,2.383,2.3838,2.3857,2.3857,2.3865,2.3904,2.3921,2.3949,2.396,2.396,2.4007,2.4001,2.399,2.3969,2.4011,2.4029,2.4036,2.3942,2.3942,2.3941,2.3941,0,0,2.3754,2.3786,2.3795,2.3809,2.3834,2.3856,2.3888,2.3917,2.3933,2.3954,2.398,2.4019,2.401,2.4026,2.4027,2.4049,2.4092,2.4036,2.4037,2.4046,2.4146,2.4154,2.4162,2.4088,2.409,2.4091,2.4144,0,2.3803,2.3859,2.3864,2.3915,2.3942,2.3938,2.3966,2.3984,2.3993,2.4017,2.4027,2.4054,2.404,2.405,2.4072,2.4082,2.4112,2.4079,2.4113,2.4115,2.4108,2.4171,2.4179,2.4228,2.4151,2.4153,2.4153,0,2.3867,2.3891,2.3945,2.3967,2.3979,2.4004,2.4031,2.4054,2.4076,2.4081,2.4099,2.4098,2.4131,2.411,2.4156,2.4133,2.4148,2.4156,2.4158,2.416,2.4136,2.4176,2.4244,2.4252,2.4164,2.4163,2.4163,0,2.3903,2.3949,2.3987,2.3999,2.4026,2.4044,2.4057,2.4077,2.4094,2.4118,2.4129,2.4156,2.417,2.4192,2.4198,2.4182,2.4244,2.4223,2.4249,2.4249,2.4262,2.4261,2.4333,2.4272,2.4272,2.4271,2.4271,0,2.3957,2.399,2.4004,2.4027,2.4064,2.407,2.4107,2.4118,2.4137,2.4162,2.416,2.4184,2.4191,2.4217,2.4222,2.426,2.4267,2.4272,2.4272,2.4272,2.4271,2.4281,2.4277,2.4273,2.4273,2.4273,2.4272,0,2.4003,2.4014,2.4055,2.4079,2.4085,2.4112,2.4131,2.4154,2.4163,2.4196,2.4204,2.4218,2.4248,2.4257,2.4293,2.4297,2.4341,2.4339,2.4334,2.4334,2.4359,2.4357,2.4441,2.4452,2.4383,2.4384,2.4384,0,2.4037,2.4062,2.4089,2.4106,2.412,2.4147,2.4165,2.4172,2.4191,2.4218,2.4238,2.4268,2.4292,2.4341,2.4354,2.4382,2.4381,2.4408,2.4385,2.4383,2.4381,2.4379,2.4382,2.4412,2.4413,2.4414,2.4414,0,2.4096,2.41,2.4126,2.4154,2.4176,2.4198,2.422,2.4234,2.4245,2.4266,2.4297,2.4316,2.4354,2.4383,2.4412,2.4425,2.4421,2.4422,2.4429,2.4428,2.4424,2.4427,2.4346,2.4419,2.4419,2.4418,2.4418,2.4418,2.4137,2.4159,2.4182,2.4211,2.4229,2.4249,2.4272,2.4285,2.4311,2.4342,2.4345,2.4379,2.4401,2.4439,2.4453,2.448,2.4472,2.4483,2.4486,2.4488,2.449,2.4421,2.4485,2.4485,2.4485,2.4485,2.4485,0,2.4195,2.421,2.4237,2.4268,2.4291,2.4287,2.4311,2.4331,2.4361,2.4382,2.4406,2.4443,2.4472,2.4488,2.4518,2.4536,2.4536,2.4544,2.4542,2.4545,2.4496,2.4486,2.4544,2.4544,2.4544,2.4544,2.4544,2.4544,2.4228,2.4267,2.4274,2.4322,2.4336,2.437,2.4384,2.4403,2.442,2.4461,2.4486,2.4497,2.4516,2.4547,2.4574,2.4578,2.4589,2.4598,2.4602,2.4555,2.4549,2.4543,2.4534,2.4601,2.4601,2.4649,2.4649,2.465]},{"header":{"parameterUnit":"m.s-1","parameterCategory":1,"la1":30.2991,"la2":30.254,"lo1":-89.0895,"lo2":-89.0444,"dy":0.0017,"dx":0.0017,"nx":28,"ny":28,"refTime":"2024-03-10T09:00:00:Z","depth":0,"parameterNumber":3,"parameterNumberName":"V-component_of_WINDS"},"data":[0,0,0,0,0,0,0,0,0,0,0,0,0,0,0,0,0,0,0,0,0,0,0,0,0,0,0,0,0,0,0,0,0,0,0,0,0,0,0,0,0,0,0,0,0,0,0,0,0,0,0,0,0,0,0,0,0,0,-8.0342,-8.0344,0,-8.05,-8.0502,-8.0504,-8.0444,-8.044,-8.0436,-8.0433,-8.0589,-8.0596,-8.0604,0,0,0,0,0,0,0,0,0,0,0,0,0,-7.9984,-7.9991,-8.0342,-8.0344,-8.0346,-8.05,-8.0502,-8.0504,-8.0444,-8.044,-8.0435,-8.0431,-8.0587,-8.0596,-8.0605,0,0,0,0,0,0,0,0,0,0,0,0,0,-8.0141,-7.9993,-8.0342,-8.0335,-8.0336,-8.05,-8.0502,-8.0505,-8.0445,-8.044,-8.0434,-8.0429,-8.0584,-8.0595,-8.0606,-8.0784,0,0,-8.064,-8.0645,0,0,0,0,0,0,0,0,-8.0132,-8.0154,-8.0334,-8.0336,-8.0337,-8.0447,-8.0433,-8.0598,-8.0447,-8.0404,-8.0433,-8.0427,-8.0546,-8.056,-8.0601,-8.0791,-8.0798,-8.0641,-8.0648,-8.0653,-8.0656,0,0,0,0,0,0,0,-8.0121,-8.0147,-8.0404,-8.0337,-8.0339,-8.0322,-8.0339,-8.0464,-8.0503,-8.0407,-8.0403,-8.0423,-8.0545,-8.059,-8.0604,-8.08,-8.0641,-8.0651,-8.0658,-8.0662,-8.1145,-8.1151,0,0,0,0,0,0,-8.011,-8.0138,-8.0399,-8.0409,-8.0219,-8.0333,-8.0351,-8.0417,-8.0501,-8.0509,-8.0427,-8.0419,-8.0574,-8.0591,-8.061,-8.0825,-8.0653,-8.0663,-8.067,-8.1139,-8.1147,-8.1153,0,0,0,0,0,0,-8.0103,-8.0134,-8.0393,-8.0273,-8.0305,-8.0345,-8.0419,-8.0423,-8.0468,-8.0517,-8.0523,-8.0466,-8.057,-8.0594,-8.0742,-8.0829,-8.0669,-8.0679,-8.1132,-8.1142,-8.115,-8.1256,0,0,0,0,0,0,-8.0093,-8.0132,-8.0201,-8.0275,-8.0311,-8.0524,-8.0425,-8.043,-8.0488,-8.0479,-8.0555,-8.0562,-8.0568,-8.0725,-8.0753,-8.0842,-8.0688,-8.1124,-8.1136,-8.1147,-8.1245,-8.1268,-8.1287,0,0,0,0,0,-8.008,-8.0223,-8.0205,-8.0237,-8.0399,-8.053,-8.055,-8.0555,-8.0495,-8.0565,-8.0596,-8.056,-8.0815,-8.0741,-8.0772,-8.0865,-8.1119,-8.1133,-8.1146,-8.1235,-8.1263,-8.1287,0,0,0,0,0,0,-8.0157,-8.0233,-8.0213,-8.0385,-8.0452,-8.0519,-8.0607,-8.0584,-8.0668,-8.0656,-8.0656,-8.0674,-8.0827,-8.086,-8.0776,-8.1043,-8.0958,-8.0978,-8.1015,-8.1042,-8.1063,-8.1051,-8.0697,0,0,0,0,0,-8.0194,-8.0295,-8.0355,-8.0501,-8.0536,-8.0566,-8.0623,-8.0621,-8.0689,-8.0717,-8.0759,-8.0825,-8.092,-8.0983,-8.1073,-8.1249,-8.1265,-8.1329,-8.135,-8.1367,-8.1385,-8.1481,-8.151,-8.1198,-8.1198,-8.1198,0,0,-8.0271,-8.0325,-8.0388,-8.0518,-8.0569,-8.0673,-8.059,-8.0703,-8.078,-8.0733,-8.0876,-8.091,-8.0984,-8.1147,-8.1221,-8.118,-8.1474,-8.1384,-8.1398,-8.1406,-8.1498,-8.1528,-8.1554,-8.1207,-8.1205,-8.1204,0,0,-8.0465,-8.0516,-8.0643,-8.0697,-8.0777,-8.0796,-8.0827,-8.0899,-8.092,-8.1064,-8.1032,-8.1122,-8.1286,-8.134,-8.1389,-8.1605,-8.1575,-8.1634,-8.1745,-8.1839,-8.1863,-8.1885,-8.1963,-8.1991,-8.1652,-8.1652,-8.1652,0,-8.055,-8.0707,-8.0711,-8.0828,-8.0886,-8.0851,-8.0979,-8.103,-8.1135,-8.1175,-8.1128,-8.1334,-8.1381,-8.1557,-8.161,-8.165,-8.1685,-8.1626,-8.186,-8.1882,-8.1902,-8.1976,-8.2005,-8.1659,-8.1658,-8.1657,-8.1657,0,-8.0808,-8.0918,-8.1011,-8.1115,-8.1183,-8.1305,-8.1327,-8.1395,-8.1387,-8.1411,-8.1558,-8.1614,-8.1715,-8.1756,-8.1749,-8.1932,-8.1904,-8.1859,-8.1774,-8.1939,-8.2008,-8.2036,-8.1668,-8.1666,-8.1664,-8.1662,0,0,-8.1054,-8.1161,-8.1195,-8.1243,-8.1328,-8.1412,-8.1532,-8.1634,-8.1692,-8.1765,-8.1866,-8.2006,-8.1965,-8.2021,-8.2019,-8.2102,-8.227,-8.2046,-8.2047,-8.2086,-8.2475,-8.251,-8.2543,-8.225,-8.2256,-8.226,-8.2469,0,-8.1256,-8.1469,-8.1477,-8.1671,-8.1772,-8.174,-8.1845,-8.1908,-8.1934,-8.2022,-8.2049,-8.2149,-8.2087,-8.2121,-8.2201,-8.2233,-8.2348,-8.2217,-8.2343,-8.2347,-8.2326,-8.2579,-8.2615,-8.281,-8.2496,-8.2501,-8.2504,0,-8.1519,-8.1604,-8.1809,-8.1881,-8.1924,-8.2018,-8.2112,-8.2197,-8.2268,-8.2281,-8.2344,-8.2331,-8.2452,-8.2363,-8.2531,-8.2442,-8.2493,-8.2516,-8.2524,-8.2536,-8.2436,-8.2598,-8.2872,-8.2902,-8.2547,-8.2544,-8.2541,0,-8.1679,-8.1844,-8.1988,-8.2029,-8.2117,-8.2185,-8.2224,-8.229,-8.2351,-8.2432,-8.2471,-8.2565,-8.2616,-8.2688,-8.27,-8.2634,-8.2868,-8.278,-8.2881,-8.2881,-8.2932,-8.2929,-8.3219,-8.2965,-8.2964,-8.2964,-8.2963,0,-8.1904,-8.2031,-8.2061,-8.215,-8.2291,-8.2298,-8.2437,-8.2471,-8.253,-8.2624,-8.2601,-8.2689,-8.2699,-8.279,-8.2799,-8.2937,-8.296,-8.2973,-8.2974,-8.2976,-8.2974,-8.301,-8.2997,-8.2972,-8.297,-8.2968,-8.2967,0,-8.2107,-8.2133,-8.2288,-8.2359,-8.238,-8.2481,-8.2541,-8.2626,-8.2649,-8.2769,-8.2797,-8.2833,-8.2939,-8.2958,-8.3082,-8.3088,-8.3252,-8.3239,-8.3229,-8.3228,-8.3329,-8.332,-8.3653,-8.3697,-8.3413,-8.3416,-8.3418,0,-8.2249,-8.2346,-8.2429,-8.2491,-8.2535,-8.2635,-8.2698,-8.2708,-8.2774,-8.2863,-8.2936,-8.304,-8.3124,-8.3294,-8.333,-8.3425,-8.3414,-8.3524,-8.3428,-8.3427,-8.3417,-8.3411,-8.3421,-8.3543,-8.3546,-8.3548,-8.355,0,-8.2499,-8.2507,-8.2599,-8.2697,-8.2772,-8.2849,-8.2921,-8.2973,-8.2992,-8.3067,-8.3177,-8.3242,-8.3369,-8.3473,-8.3567,-8.3605,-8.3582,-8.3581,-8.3609,-8.3612,-8.3603,-8.361,-8.3281,-8.3573,-8.3571,-8.3569,-8.3568,-8.3567,-8.2676,-8.2761,-8.2834,-8.2937,-8.2993,-8.3062,-8.3145,-8.318,-8.3272,-8.3378,-8.3378,-8.3498,-8.3566,-8.3691,-8.3736,-8.3828,-8.3793,-8.3834,-8.3845,-8.3855,-8.3865,-8.3588,-8.3845,-8.3844,-8.3844,-8.3843,-8.3843,0,-8.2925,-8.2971,-8.3066,-8.3169,-8.3251,-8.3223,-8.3302,-8.3371,-8.3478,-8.3544,-8.3628,-8.3753,-8.3854,-8.3899,-8.3997,-8.4062,-8.4054,-8.4088,-8.4083,-8.4093,-8.3891,-8.3857,-8.4093,-8.4093,-8.4093,-8.4093,-8.4093,-8.4093,-8.3065,-8.3208,-8.3225,-8.3396,-8.344,-8.3559,-8.3606,-8.3669,-8.3722,-8.3865,-8.3949,-8.3978,-8.4036,-8.4138,-8.4229,-8.4239,-8.4277,-8.4316,-8.4321,-8.4132,-8.4107,-8.4083,-8.4051,-8.4324,-8.4324,-8.4516,-8.4517,-8.4519]}]]